Previsão horária em Brasília

Hoje, 28 Novembro, Sábado

Tempo Temperatura Precipitação Vento Pressão Humidade
00:00 +19°C° 0 mm 2 m/s 666 mmHg 86%
01:00 +18°C° 0 mm 2 m/s 666 mmHg 87%
02:00 +18°C° 0 mm 2 m/s 666 mmHg 89%
03:00 +18°C° 0 mm 2 m/s 665 mmHg 90%
04:00 +18°C° 0 mm 2 m/s 665 mmHg 90%
05:00 +18°C° 0 mm 3 m/s 666 mmHg 90%
06:00 +18°C° 0 mm 3 m/s 666 mmHg 90%
07:00 +19°C° 0 mm 3 m/s 667 mmHg 85%
08:00 +21°C° 0 mm 4 m/s 667 mmHg 80%
09:00 +22°C° 0 mm 5 m/s 668 mmHg 75%
10:00 +23°C° 0 mm 5 m/s 668 mmHg 71%
11:00 +25°C° 0 mm 5 m/s 668 mmHg 66%
12:00 +27°C° 0 mm 5 m/s 669 mmHg 62%
13:00 +27°C° 0 mm 4 m/s 668 mmHg 61%
14:00 +27°C° 0 mm 4 m/s 667 mmHg 61%
15:00 +27°C° 0 mm 4 m/s 667 mmHg 60%
16:00 +26°C° 0.1 mm 4 m/s 667 mmHg 66%
17:00 +25°C° 0.1 mm 3 m/s 667 mmHg 71%
18:00 +24°C° 0.1 mm 3 m/s 666 mmHg 77%
19:00 +22°C° 0 mm 3 m/s 667 mmHg 78%
20:00 +21°C° 0 mm 3 m/s 667 mmHg 80%
21:00 +20°C° 0 mm 3 m/s 667 mmHg 81%
22:00 +20°C° 0 mm 3 m/s 667 mmHg 81%
23:00 +19°C° 0 mm 3 m/s 666 mmHg 82%

Amanhã, 29 Novembro, Domingo

Tempo Temperatura Precipitação Vento Pressão Humidade
00:00 +19°C° 0 mm 3 m/s 666 mmHg 82%
01:00 +18°C° 0 mm 3 m/s 666 mmHg 82%
02:00 +18°C° 0 mm 3 m/s 665 mmHg 82%
03:00 +18°C° 0 mm 4 m/s 665 mmHg 83%
04:00 +18°C° 0 mm 4 m/s 665 mmHg 85%
05:00 +18°C° 0 mm 4 m/s 666 mmHg 88%
06:00 +17°C° 0 mm 4 m/s 666 mmHg 90%
07:00 +19°C° 0 mm 4 m/s 667 mmHg 84%
08:00 +20°C° 0 mm 5 m/s 667 mmHg 78%
09:00 +22°C° 0 mm 5 m/s 668 mmHg 72%
10:00 +23°C° 0 mm 5 m/s 668 mmHg 68%
11:00 +25°C° 0 mm 4 m/s 668 mmHg 65%
12:00 +26°C° 0 mm 4 m/s 668 mmHg 61%
13:00 +26°C° 0 mm 4 m/s 668 mmHg 61%
14:00 +26°C° 0 mm 4 m/s 667 mmHg 61%
15:00 +26°C° 0 mm 3 m/s 666 mmHg 60%
16:00 +25°C° 0 mm 3 m/s 666 mmHg 65%
17:00 +24°C° 0 mm 3 m/s 666 mmHg 70%
18:00 +23°C° 0 mm 2 m/s 665 mmHg 74%
19:00 +21°C° 0 mm 2 m/s 666 mmHg 77%
20:00 +20°C° 0 mm 2 m/s 666 mmHg 81%
21:00 +19°C° 0 mm 2 m/s 666 mmHg 84%
22:00 +19°C° 0 mm 2 m/s 666 mmHg 84%
23:00 +19°C° 0 mm 2 m/s 666 mmHg 84%

Depois de amanhã, 30 Novembro, Segunda-feira

Tempo Temperatura Precipitação Vento Pressão Humidade
00:00 +18°C° 0 mm 2 m/s 666 mmHg 84%
01:00 +18°C° 0 mm 2 m/s 665 mmHg 85%
02:00 +18°C° 0 mm 2 m/s 665 mmHg 86%
03:00 +17°C° 0 mm 2 m/s 665 mmHg 87%
04:00 +17°C° 0 mm 2 m/s 665 mmHg 87%
05:00 +17°C° 0 mm 2 m/s 665 mmHg 87%
06:00 +17°C° 0 mm 2 m/s 665 mmHg 86%
07:00 +19°C° 0 mm 3 m/s 666 mmHg 81%
08:00 +21°C° 0 mm 3 m/s 666 mmHg 75%
09:00 +22°C° 0 mm 4 m/s 667 mmHg 70%
10:00 +25°C° 0 mm 4 m/s 667 mmHg 65%
11:00 +26°C° 0 mm 3 m/s 667 mmHg 60%
12:00 +27°C° 0 mm 3 m/s 667 mmHg 55%
13:00 +27°C° 0 mm 3 m/s 666 mmHg 54%
14:00 +27°C° 0 mm 3 m/s 666 mmHg 54%
15:00 +27°C° 0 mm 2 m/s 665 mmHg 53%
16:00 +26°C° 0 mm 2 m/s 665 mmHg 59%
17:00 +25°C° 0 mm 2 m/s 665 mmHg 64%
18:00 +24°C° 0 mm 2 m/s 664 mmHg 70%
19:00 +23°C° 0 mm 2 m/s 665 mmHg 72%
20:00 +22°C° 0 mm 1 m/s 665 mmHg 74%
21:00 +21°C° 0 mm 1 m/s 665 mmHg 77%
22:00 +21°C° 0 mm 1 m/s 665 mmHg 76%
23:00 +21°C° 0 mm 1 m/s 664 mmHg 76%

1 Dezembro, Terça-feira

Tempo Temperatura Precipitação Vento Pressão Humidade
00:00 +20°C° 0 mm 1 m/s 664 mmHg 76%
01:00 +20°C° 0 mm 1 m/s 664 mmHg 78%
02:00 +20°C° 0 mm 1 m/s 663 mmHg 80%
03:00 +20°C° 0 mm 1 m/s 663 mmHg 81%
04:00 +20°C° 0 mm 1 m/s 663 mmHg 82%
05:00 +18°C° 0 mm 2 m/s 664 mmHg 82%
06:00 +18°C° 0 mm 2 m/s 664 mmHg 83%
07:00 +20°C° 0 mm 2 m/s 665 mmHg 76%
08:00 +22°C° 0 mm 3 m/s 666 mmHg 69%
09:00 +25°C° 0 mm 3 m/s 667 mmHg 62%
10:00 +26°C° 0 mm 3 m/s 667 mmHg 58%
11:00 +27°C° 0 mm 3 m/s 667 mmHg 55%
12:00 +28°C° 0 mm 3 m/s 667 mmHg 51%
13:00 +28°C° 0 mm 2 m/s 666 mmHg 52%
14:00 +28°C° 0 mm 2 m/s 666 mmHg 53%
15:00 +28°C° 0 mm 2 m/s 665 mmHg 53%
16:00 +27°C° 0 mm 1 m/s 665 mmHg 58%
17:00 +26°C° 0 mm 1 m/s 664 mmHg 63%
18:00 +24°C° 0 mm 1 m/s 664 mmHg 68%
19:00 +24°C° 0 mm 1 m/s 664 mmHg 70%
20:00 +23°C° 0 mm 1 m/s 664 mmHg 72%
21:00 +22°C° 0 mm 1 m/s 664 mmHg 75%
22:00 +21°C° 0 mm 1 m/s 664 mmHg 74%
23:00 +21°C° 0 mm 1 m/s 664 mmHg 74%

2 Dezembro, Quarta-feira

Tempo Temperatura Precipitação Vento Pressão Humidade
00:00 +19°C° 0 mm 0 m/s 664 mmHg 74%
01:00 +19°C° 0 mm 0 m/s 664 mmHg 74%
02:00 +19°C° 0 mm 0 m/s 664 mmHg 74%
03:00 +18°C° 0 mm 0 m/s 663 mmHg 74%
04:00 +18°C° 0 mm 0 m/s 664 mmHg 75%
05:00 +18°C° 0 mm 0 m/s 664 mmHg 75%
06:00 +20°C° 0 mm 1 m/s 664 mmHg 76%
07:00 +22°C° 0 mm 1 m/s 665 mmHg 69%
08:00 +24°C° 0 mm 1 m/s 666 mmHg 63%
09:00 +26°C° 0 mm 1 m/s 667 mmHg 56%
10:00 +27°C° 0 mm 2 m/s 667 mmHg 53%
11:00 +28°C° 0 mm 2 m/s 667 mmHg 49%
12:00 +29°C° 0 mm 2 m/s 667 mmHg 46%
13:00 +29°C° 0 mm 2 m/s 666 mmHg 47%
14:00 +28°C° 0 mm 2 m/s 666 mmHg 48%
15:00 +28°C° 0 mm 2 m/s 665 mmHg 49%
16:00 +27°C° 0 mm 2 m/s 665 mmHg 54%
17:00 +26°C° 0 mm 2 m/s 664 mmHg 60%
18:00 +25°C° 0 mm 2 m/s 664 mmHg 65%
19:00 +24°C° 0 mm 2 m/s 664 mmHg 66%
20:00 +23°C° 0 mm 1 m/s 664 mmHg 68%
21:00 +22°C° 0 mm 1 m/s 664 mmHg 69%
22:00 +22°C° 0 mm 1 m/s 665 mmHg 69%
23:00 +22°C° 0 mm 1 m/s 665 mmHg 69%

3 Dezembro, Quinta-feira

Tempo Temperatura Precipitação Vento Pressão Humidade
00:00 +21°C° 0 mm 1 m/s 665 mmHg 70%
01:00 +21°C° 0 mm 1 m/s 664 mmHg 70%
02:00 +21°C° 0 mm 1 m/s 664 mmHg 71%
03:00 +21°C° 0 mm 1 m/s 664 mmHg 72%
04:00 +21°C° 0 mm 1 m/s 664 mmHg 72%
05:00 +21°C° 0 mm 1 m/s 665 mmHg 72%
06:00 +21°C° 0 mm 1 m/s 665 mmHg 73%
07:00 +21°C° 0 mm 0 m/s 666 mmHg 63%
08:00 +24°C° 0 mm 0 m/s 667 mmHg 54%
09:00 +27°C° 0 mm 0 m/s 668 mmHg 45%
10:00 +29°C° 0 mm 1 m/s 668 mmHg 42%
11:00 +30°C° 0 mm 1 m/s 667 mmHg 39%
12:00 +31°C° 0 mm 2 m/s 667 mmHg 36%
13:00 +31°C° 0 mm 2 m/s 666 mmHg 37%
14:00 +31°C° 0 mm 2 m/s 666 mmHg 38%
15:00 +30°C° 0 mm 2 m/s 665 mmHg 39%
16:00 +29°C° 0 mm 2 m/s 665 mmHg 45%
17:00 +28°C° 0 mm 2 m/s 664 mmHg 52%
18:00 +26°C° 0 mm 2 m/s 663 mmHg 58%
19:00 +25°C° 0 mm 2 m/s 664 mmHg 60%
20:00 +24°C° 0 mm 1 m/s 664 mmHg 62%
21:00 +23°C° 0 mm 1 m/s 664 mmHg 65%
22:00 +23°C° 0 mm 1 m/s 664 mmHg 64%
23:00 +23°C° 0 mm 1 m/s 664 mmHg 64%
Mostrar mais